Location: Unspecified
(0.0000°N, 0.0000°E)
Time: 02:33:04
(UTC+00:00)

BEESAT - Pass Details

Date: 01 June 2019
Orbit: 701 x 709 km, 98.6° (Epoch: 14 June)

Event Time Altitude Azimuth Distance (km) Brightness Sun altitude
Rises 03:30:01 0° 131° (SE) 3,097 ? -33.9°
Reaches altitude 10° 03:33:36 10° 103° (ESE) 2,176 ? -33.1°
Maximum altitude 03:35:37 13° 77° (ENE) 1,998 ? -32.6°
Drops below altitude 10° 03:37:39 10° 52° (NE) 2,173 ? -32.2°
Sets 03:41:12 0° 24° (NNE) 3,088 ? -31.4°
